Weather History for Janesville, WI

Change the Weather History Date:

Friday, August 2, 2013

  Actual Average Record
Temperature  
Mean Temperature 72 °F -  
Max Temperature 82 °F 78 °F 98 °F (1988)
Min Temperature 62 °F 59 °F 53 °F (1990)
Cooling Degree Days 7    
Growing Degree Days 22 (Base 50)    
Moisture  
Dew Point 59 °F    
Average Humidity 72    
Maximum Humidity 94    
Minimum Humidity 42    
Precipitation  
Precipitation 0.55 in - - ()
Sea Level Pressure  
Sea Level Pressure 29.90 in    
Wind  
Wind Speed 5 mph (WNW)    
Max Wind Speed 14 mph    
Max Gust Speed 24 mph    
Visibility 10 miles    
Events Rain    
Averages and records for this station are not official NWS values.
T = Trace of Precipitation, MM = Missing Value Source: NWS Daily Summary

Daily Weather History Graph

Daily Weather History Graph

Search for Another Location

Airport:

Trip Planner

Search our weather history database for the weather conditions in past years. The results will help you decide how hot, cold, wet, or windy it might be!

Date:

Astronomy

Aug. 02, 2013 Rise Set
Actual Time 5:49 AM CDT 8:14 PM CDT
Civil Twilight 5:17 AM CDT 8:46 PM CDT
Nautical Twilight 4:37 AM CDT 9:25 PM CDT
Astronomical Twilight 3:53 AM CDT 10:09 PM CDT
Moon 2:09 AM CDT (8/2) 5:13 PM CDT (8/2)
Length of Visible Light 15h 29m
Length of Day
14h 25m
Waning Crescent, 15% of the Moon is Illuminated
Aug 2
Waning Crescent
Aug 6
New
Aug 14
First Quarter
Aug 20
Full
Aug 28
Last Quarter

Hourly Weather History & Observations

Time (CDT) Temp. Heat Index Dew Point Humidity Pressure Visibility Wind Dir Wind Speed Gust Speed Precip Events Conditions
12:15 AM 64.4 °F - 57.2 °F 77% 29.92 in 10.0 mi Calm Calm - N/A Rain Light Rain
12:35 AM 64.4 °F - 59.0 °F 83% 29.92 in 10.0 mi Calm Calm - N/A Rain Light Rain
12:55 AM 66.2 °F - 57.2 °F 73% 29.95 in 2.5 mi WSW 9.2 mph 24.2 mph 0.36 in Rain Heavy Rain
1:15 AM 64.4 °F - 59.0 °F 83% 29.92 in 10.0 mi South 8.1 mph - 0.04 in Rain Light Rain
1:55 AM 64.4 °F - 60.8 °F 88% 29.91 in 10.0 mi Calm Calm - 0.05 in   Overcast
2:15 AM 62.6 °F - 59.0 °F 88% 29.89 in 10.0 mi SE 6.9 mph - N/A   Scattered Clouds
2:35 AM 62.6 °F - 59.0 °F 88% 29.89 in 10.0 mi SSE 6.9 mph - N/A   Clear
2:55 AM 62.6 °F - 59.0 °F 88% 29.88 in 10.0 mi Calm Calm - N/A   Scattered Clouds
3:15 AM 62.6 °F - 59.0 °F 88% 29.88 in 10.0 mi SSE 5.8 mph - N/A   Scattered Clouds
3:55 AM 64.4 °F - 59.0 °F 83% 29.86 in 10.0 mi South 9.2 mph - N/A   Mostly Cloudy
4:15 AM 64.4 °F - 59.0 °F 83% 29.88 in 10.0 mi South 4.6 mph - N/A Rain Light Rain
4:35 AM 64.4 °F - 59.0 °F 83% 29.88 in 4.0 mi Calm Calm - 0.05 in Rain Heavy Rain
4:55 AM 62.6 °F - 59.0 °F 88% 29.87 in 10.0 mi SE 3.5 mph - 0.14 in Rain Light Rain
5:15 AM 62.6 °F - 60.8 °F 94% 29.88 in 10.0 mi NNE 5.8 mph - N/A Rain Light Rain
5:35 AM 62.6 °F - 60.8 °F 94% 29.87 in 10.0 mi SE 5.8 mph - N/A   Overcast
5:45 AM 64.4 °F - 60.8 °F 88% 29.87 in 10.0 mi SE 4.6 mph - N/A   Mostly Cloudy
6:45 AM 64.4 °F - 60.8 °F 88% 29.87 in 10.0 mi SSE 3.5 mph - N/A   Mostly Cloudy
7:45 AM 64.4 °F - 62.6 °F 94% 29.86 in 10.0 mi SSW 3.5 mph - N/A   Mostly Cloudy
8:45 AM 71.6 °F - 62.6 °F 73% 29.86 in 10.0 mi West 6.9 mph - N/A   Scattered Clouds
9:45 AM 73.4 °F - 64.4 °F 73% 29.87 in 10.0 mi WNW 8.1 mph - N/A   Mostly Cloudy
10:45 AM 75.2 °F - 64.4 °F 69% 29.87 in 10.0 mi WNW 4.6 mph - N/A   Scattered Clouds
11:45 AM 78.8 °F - 62.6 °F 57% 29.87 in 10.0 mi NNW 6.9 mph - N/A   Scattered Clouds
12:45 PM 80.6 °F 81.5 °F 60.8 °F 51% 29.88 in 10.0 mi NW 12.7 mph - N/A   Mostly Cloudy
1:45 PM 82.4 °F 82.0 °F 57.2 °F 42% 29.88 in 10.0 mi West 13.8 mph - N/A   Mostly Cloudy
2:45 PM 82.4 °F 82.0 °F 57.2 °F 42% 29.88 in 10.0 mi West 11.5 mph - N/A   Mostly Cloudy
4:45 PM 80.6 °F 80.5 °F 55.4 °F 42% 29.88 in 10.0 mi WNW 11.5 mph - N/A   Clear
6:45 PM 77.0 °F - 59.0 °F 54% 29.90 in 10.0 mi NW 5.8 mph - N/A   Clear
8:45 PM 71.6 °F - 59.0 °F 64% 29.93 in 10.0 mi NNW 5.8 mph - N/A   Clear
9:15 PM 69.8 °F - 57.2 °F 64% 29.93 in 10.0 mi NW 4.6 mph - N/A   Mostly Cloudy
9:35 PM 69.8 °F - 57.2 °F 64% 29.94 in 10.0 mi NW 4.6 mph - N/A   Mostly Cloudy
9:55 PM 69.8 °F - 57.2 °F 64% 29.94 in 10.0 mi NW 3.5 mph - N/A   Scattered Clouds
10:15 PM 69.8 °F - 57.2 °F 64% 29.95 in 10.0 mi NNW 4.6 mph - N/A   Clear
10:35 PM 69.8 °F - 55.4 °F 60% 29.95 in 10.0 mi North 5.8 mph - N/A   Clear
10:55 PM 69.8 °F - 55.4 °F 60% 29.95 in 10.0 mi NNW 4.6 mph - N/A   Clear
11:15 PM 69.8 °F - 53.6 °F 56% 29.95 in 10.0 mi North 3.5 mph - N/A   Clear
11:35 PM 69.8 °F - 51.8 °F 53% 29.95 in 10.0 mi North 3.5 mph - N/A   Clear
11:55 PM 69.8 °F - 51.8 °F 53% 29.97 in 10.0 mi North 3.5 mph - N/A   Clear